Weather History for Casper, WY

Change the Weather History Date:

Wednesday, January 4, 2012

  Actual Average Record
Temperature  
Mean Temperature 36 °F 24 °F  
Max Temperature 45 °F 35 °F 55 °F (1981)
Min Temperature 27 °F 14 °F -24 °F (1959)
Degree Days  
Heating Degree Days 29 41  
Month to date heating degree days 142 164  
Since 1 July heating degree days 3042 3293  
Cooling Degree Days 0 0  
Month to date cooling degree days 0 0  
Year to date cooling degree days 0 0  
Moisture  
Dew Point 17 °F    
Average Humidity 52    
Maximum Humidity 68    
Minimum Humidity 36    
Precipitation  
Precipitation 0.00 in 0.02 in 0.27 in (1996)
Month to date precipitation 0.00 0.07  
Year to date precipitation 0.00 0.07  
Snow  
Snow 0.00 in 0.30 in - ()
Month to date snowfall 0.0 1.3  
Since 1 July snowfall 26.7 31.8  
Snow Depth 0.00 in    
Sea Level Pressure  
Sea Level Pressure 30.35 in    
Wind  
Wind Speed 20 mph (SW)    
Max Wind Speed 29 mph    
Max Gust Speed 39 mph    
Visibility 10 miles    
Events      
T = Trace of Precipitation, MM = Missing Value Source: NWS Daily Summary

Daily Weather History Graph

Daily Weather History Graph

Search for Another Location

Airport:

Trip Planner

Search our weather history database for the weather conditions in past years. The results will help you decide how hot, cold, wet, or windy it might be!

Date:

Astronomy

Jan. 04, 2012 Rise Set
Actual Time 7:36 AM MST 4:44 PM MST
Civil Twilight 7:04 AM MST 5:16 PM MST
Nautical Twilight 6:29 AM MST 5:52 PM MST
Astronomical Twilight 5:55 AM MST 6:26 PM MST
Moon 1:10 PM MST (1/4) 3:26 AM MST (1/4)
Length of Visible Light 10h 11m
Length of Day
9h 07m
Waxing Gibbous, 81% of the Moon is Illuminated
Jan 4
Waxing Gibbous
Jan 9
Full
Jan 16
Last Quarter
Jan 23
New
Jan 30
First Quarter

Hourly Weather History & Observations

Time (MST) Temp. Windchill Dew Point Humidity Pressure Visibility Wind Dir Wind Speed Gust Speed Precip Events Conditions
12:53 AM 33.1 °F 22.2 °F 17.1 °F 52% 30.32 in 10.0 mi SW 17.3 mph - N/A   Clear
1:53 AM 32.0 °F 22.5 °F 16.0 °F 52% 30.34 in 10.0 mi WSW 12.7 mph - N/A   Clear
2:53 AM 33.1 °F 22.6 °F 16.0 °F 50% 30.35 in 10.0 mi SW 16.1 mph - N/A   Clear
3:53 AM 34.0 °F 24.6 °F 15.1 °F 46% 30.34 in 10.0 mi SW 13.8 mph - N/A   Clear
4:53 AM 35.1 °F 23.5 °F 15.1 °F 44% 30.36 in 10.0 mi SW 21.9 mph 29.9 mph N/A   Clear
5:53 AM 34.0 °F 24.6 °F 15.1 °F 46% 30.40 in 10.0 mi SW 13.8 mph 21.9 mph N/A   Clear
6:53 AM 33.1 °F 21.9 °F 14.0 °F 46% 30.42 in 10.0 mi SW 18.4 mph 25.3 mph N/A   Clear
7:53 AM 33.8 °F 22.2 °F 15.8 °F 48% 30.35 in 10.0 mi SSW 20.7 mph 32.2 mph N/A   Clear
8:53 AM 36.0 °F 25.0 °F 16.0 °F 44% 30.47 in 10.0 mi SW 20.7 mph 27.6 mph N/A   Clear
9:53 AM 37.9 °F 26.1 °F 16.0 °F 41% 30.45 in 10.0 mi SSW 27.6 mph 35.7 mph N/A   Clear
10:53 AM 39.9 °F 28.6 °F 16.0 °F 38% 30.39 in 10.0 mi SSW 28.8 mph 38.0 mph N/A   Clear
11:53 AM 42.1 °F 33.1 °F 17.1 °F 37% 30.39 in 10.0 mi SW 20.7 mph 31.1 mph N/A   Clear
12:53 PM 43.0 °F 33.3 °F 17.1 °F 35% 30.34 in 10.0 mi SSW 25.3 mph 33.4 mph N/A   Clear
1:53 PM 44.1 °F 35.7 °F 19.0 °F 37% 30.34 in 10.0 mi SSW 20.7 mph - N/A   Clear
2:53 PM 45.0 °F 36.9 °F 19.0 °F 36% 30.33 in 10.0 mi SW 20.7 mph 28.8 mph N/A   Clear
3:53 PM 45.0 °F 37.4 °F 19.9 °F 37% 30.31 in 10.0 mi SSW 18.4 mph 28.8 mph N/A   Clear
4:53 PM 43.0 °F 34.8 °F 19.0 °F 38% 30.34 in 10.0 mi SSW 18.4 mph 28.8 mph N/A   Clear
5:53 PM 42.1 °F 33.6 °F 19.0 °F 40% 30.35 in 10.0 mi SW 18.4 mph 26.5 mph N/A   Clear
6:53 PM 42.1 °F 33.3 °F 19.0 °F 40% 30.33 in 10.0 mi SSW 19.6 mph 27.6 mph N/A   Clear
7:53 PM 42.1 °F 32.8 °F 18.0 °F 38% 30.32 in 10.0 mi SSW 21.9 mph 28.8 mph N/A   Clear
8:53 PM 41.0 °F 30.9 °F 18.0 °F 40% 30.31 in 10.0 mi SSW 24.2 mph 32.2 mph N/A   Clear
9:53 PM 41.0 °F 31.6 °F 17.1 °F 38% 30.28 in 10.0 mi SSW 20.7 mph - N/A   Clear
10:53 PM 43.0 °F 34.0 °F 17.1 °F 35% 30.25 in 10.0 mi SSW 21.9 mph 31.1 mph N/A   Clear
11:53 PM 42.1 °F 33.6 °F 17.1 °F 37% 30.25 in 10.0 mi SW 18.4 mph 27.6 mph N/A   Clear